TimeEST,TemperatureF,Dew PointF,Humidity,Sea Level PressureIn,VisibilityMPH,Wind Direction,Wind SpeedMPH,Gust SpeedMPH,PrecipitationIn,Events,Conditions,WindDirDegrees,DateUTC
12:53 AM,19.9,12.0,71,30.14,10.0,Calm,Calm,-,N/A,,Clear,0,2013-03-03 05:53:00
1:53 AM,19.0,12.9,77,30.14,10.0,Calm,Calm,-,N/A,,Clear,0,2013-03-03 06:53:00
2:53 AM,16.0,9.0,74,30.13,10.0,Calm,Calm,-,N/A,,Partly Cloudy,0,2013-03-03 07:53:00
3:53 AM,14.0,9.0,80,30.12,10.0,Calm,Calm,-,N/A,,Clear,0,2013-03-03 08:53:00
4:53 AM,14.0,8.1,77,30.11,10.0,Calm,Calm,-,N/A,,Clear,0,2013-03-03 09:53:00
5:53 AM,12.9,7.0,77,30.12,10.0,Calm,Calm,-,N/A,,Mostly Cloudy,0,2013-03-03 10:53:00
6:53 AM,15.1,8.1,74,30.12,10.0,Calm,Calm,-,N/A,,Partly Cloudy,0,2013-03-03 11:53:00
7:53 AM,14.0,8.1,77,30.14,10.0,Calm,Calm,-,N/A,,Scattered Clouds,0,2013-03-03 12:53:00
8:53 AM,19.0,12.9,77,30.13,10.0,Calm,Calm,-,N/A,,Partly Cloudy,0,2013-03-03 13:53:00
9:53 AM,21.9,12.9,68,30.13,10.0,Calm,Calm,-,N/A,,Mostly Cloudy,0,2013-03-03 14:53:00
10:53 AM,27.0,14.0,58,30.12,10.0,Calm,Calm,-,N/A,,Mostly Cloudy,0,2013-03-03 15:53:00
11:53 AM,30.0,14.0,51,30.11,10.0,WNW,8.1,-,N/A,,Overcast,300,2013-03-03 16:53:00
12:53 PM,30.0,15.1,54,30.10,10.0,NNW,12.7,-,N/A,,Overcast,330,2013-03-03 17:53:00
1:53 PM,30.9,15.1,52,30.09,10.0,NW,13.8,18.4,N/A,,Mostly Cloudy,310,2013-03-03 18:53:00
2:53 PM,30.9,15.1,52,30.08,10.0,WNW,10.4,-,N/A,,Mostly Cloudy,300,2013-03-03 19:53:00
3:26 PM,30.2,15.8,55,30.04,10.0,NW,9.2,-,N/A,,Mostly Cloudy,320,2013-03-03 20:26:00
3:53 PM,30.9,15.1,52,30.07,10.0,NW,10.4,-,N/A,,Mostly Cloudy,320,2013-03-03 20:53:00
5:16 PM,28.4,17.6,64,30.05,10.0,WNW,10.4,-,N/A,,Mostly Cloudy,300,2013-03-03 22:16:00
5:28 PM,30.2,17.6,60,30.05,10.0,NW,11.5,-,N/A,,Scattered Clouds,310,2013-03-03 22:28:00
5:53 PM,28.9,17.1,61,30.09,10.0,NW,9.2,-,N/A,,Partly Cloudy,310,2013-03-03 22:53:00
6:53 PM,28.0,16.0,61,30.10,10.0,NW,9.2,-,N/A,,Clear,320,2013-03-03 23:53:00
7:53 PM,27.0,15.1,61,30.11,10.0,NW,9.2,-,N/A,,Clear,320,2013-03-04 00:53:00
8:53 PM,26.1,15.1,63,30.12,10.0,NNW,4.6,-,N/A,,Clear,330,2013-03-04 01:53:00
9:53 PM,24.1,12.9,62,30.12,10.0,Calm,Calm,-,N/A,,Clear,0,2013-03-04 02:53:00
10:53 PM,23.0,12.9,65,30.12,10.0,Calm,Calm,-,N/A,,Clear,0,2013-03-04 03:53:00
11:53 PM,21.0,12.9,71,30.14,10.0,NNW,3.5,-,N/A,,Clear,330,2013-03-04 04:53:00